,,PA_Meas_PMT16A,,PR_Meas_QMR101_102,,RH_Meas_QMH101,,SR_Meas_QMS101,,TA_Meas_QMH101,,GenWind,,GenWind,
time,status,PA,status,PR,status,RH,status,SR,status,TA,status,DirAvg,status,SpdAvg,
2012-10-21, 00:00:05,VALID,917.77,VALID,0,VALID,97.3281,VALID,0,VALID,19.5288,VALID,113,VALID,0.449219,
2012-10-21, 00:01:05,VALID,917.738,VALID,0,VALID,97.3129,VALID,0,VALID,19.5693,VALID,113,VALID,0.176953,
2012-10-21, 00:02:05,VALID,917.732,VALID,0,VALID,97.2824,VALID,0,VALID,19.5693,VALID,113,VALID,0,
2012-10-21, 00:03:05,VALID,917.709,VALID,0,VALID,97.3053,VALID,0,VALID,19.5678,VALID,113,VALID,0,
2012-10-21, 00:04:05,VALID,917.705,VALID,0,VALID,97.2977,VALID,0,VALID,19.5288,VALID,113,VALID,0,
2012-10-21, 00:05:05,VALID,917.704,VALID,0,VALID,97.3053,VALID,0,VALID,19.5498,VALID,113,VALID,0,
2012-10-21, 00:06:05,VALID,917.667,VALID,0,VALID,97.3281,VALID,0,VALID,19.5498,VALID,113,VALID,0,
2012-10-21, 00:07:05,VALID,917.633,VALID,0,VALID,97.2977,VALID,0,VALID,19.5093,VALID,113,VALID,0,
2012-10-21, 00:08:05,VALID,917.651,VALID,0,VALID,97.2824,VALID,0,VALID,19.5288,VALID,113,VALID,0,
2012-10-21, 00:09:05,VALID,917.617,VALID,0,VALID,97.2977,VALID,0,VALID,19.5483,VALID,113,VALID,0,
2012-10-21, 00:10:05,VALID,917.622,VALID,0,VALID,97.3129,VALID,0.107441,VALID,19.5678,VALID,113,VALID,0,
2012-10-21, 00:11:05,VALID,917.624,VALID,0,VALID,97.3129,VALID,0,VALID,19.5678,VALID,113,VALID,0,
2012-10-21, 00:12:04,VALID,917.614,VALID,0,VALID,97.3053,VALID,0,VALID,19.5483,VALID,113,VALID,0.630469,
2012-10-21, 00:13:04,VALID,917.615,VALID,0,VALID,97.3281,VALID,0,VALID,19.4703,VALID,113,VALID,0.792969,
2012-10-21, 00:14:04,VALID,917.61,VALID,0,VALID,97.3129,VALID,0.107441,VALID,19.4703,VALID,113,VALID,0.636328,
2012-10-21, 00:15:04,VALID,917.596,VALID,0,VALID,97.2977,VALID,0.107441,VALID,19.4508,VALID,113,VALID,0.476172,
2012-10-21, 00:16:04,VALID,917.603,VALID,0,VALID,97.3129,VALID,0,VALID,19.4313,VALID,113,VALID,0.482422,
2012-10-21, 00:17:04,VALID,917.613,VALID,0,VALID,97.3129,VALID,0.107441,VALID,19.4313,VALID,113,VALID,0.495703,
2012-10-21, 00:18:04,VALID,917.612,VALID,0,VALID,97.3053,VALID,0,VALID,19.4118,VALID,113,VALID,0.322266,
2012-10-21, 00:19:04,VALID,917.604,VALID,0,VALID,97.3281,VALID,0.107441,VALID,19.4118,VALID,113,VALID,0.594531,
2012-10-21, 00:20:04,VALID,917.616,VALID,0,VALID,97.3129,VALID,0,VALID,19.4313,VALID,113,VALID,0.489844,
2012-10-21, 00:21:04,VALID,917.63,VALID,0,VALID,97.3205,VALID,0,VALID,19.4523,VALID,113,VALID,0.308594,
2012-10-21, 00:22:04,VALID,917.596,VALID,0,VALID,97.3358,VALID,0,VALID,19.4523,VALID,113,VALID,0.0851562,
2012-10-21, 00:23:04,VALID,917.603,VALID,0,VALID,97.351,VALID,0,VALID,19.4523,VALID,113,VALID,0.226172,
2012-10-21, 00:24:04,VALID,917.584,VALID,0,VALID,97.3358,VALID,0,VALID,19.4913,VALID,113,VALID,0.344141,
2012-10-21, 00:25:04,VALID,917.619,VALID,0,VALID,97.351,VALID,0,VALID,19.5108,VALID,113,VALID,0.0597656,
2012-10-21, 00:26:04,VALID,917.637,VALID,0,VALID,97.351,VALID,0,VALID,19.5512,VALID,113,VALID,0.201953,
2012-10-21, 00:27:04,VALID,917.65,VALID,0,VALID,97.3663,VALID,0,VALID,19.5093,VALID,113,VALID,0.478125,
2012-10-21, 00:28:04,VALID,917.653,VALID,0,VALID,97.3586,VALID,0,VALID,19.5512,VALID,113,VALID,0.433594,
2012-10-21, 00:29:04,VALID,917.65,VALID,0,VALID,97.3358,VALID,0,VALID,19.5108,VALID,113,VALID,0.455078,
2012-10-21, 00:30:04,VALID,917.598,VALID,0,VALID,97.3739,VALID,0,VALID,19.5108,VALID,113,VALID,0,
2012-10-21, 00:31:04,VALID,917.613,VALID,0,VALID,97.3434,VALID,0,VALID,19.5303,VALID,113,VALID,0,
2012-10-21, 00:32:04,VALID,917.602,VALID,0,VALID,97.351,VALID,0,VALID,19.5708,VALID,113,VALID,0.435937,
2012-10-21, 00:33:04,VALID,917.599,VALID,0,VALID,97.3586,VALID,0,VALID,19.5708,VALID,113,VALID,0.341016,
2012-10-21, 00:34:04,VALID,917.601,VALID,0.2,VALID,97.3663,VALID,0,VALID,19.5888,VALID,113,VALID,0.303516,
2012-10-21, 00:35:04,VALID,917.572,VALID,0,VALID,97.3663,VALID,0,VALID,19.5888,VALID,113,VALID,0.317187,
2012-10-21, 00:36:04,VALID,917.548,VALID,0,VALID,97.3891,VALID,0,VALID,19.6098,VALID,113,VALID,0.327344,
2012-10-21, 00:37:04,VALID,917.565,VALID,0,VALID,97.3739,VALID,0,VALID,19.6098,VALID,113,VALID,0.439844,
2012-10-21, 00:38:04,VALID,917.531,VALID,0,VALID,97.3663,VALID,0,VALID,19.5888,VALID,113,VALID,0.0601562,
2012-10-21, 00:39:04,VALID,917.505,VALID,0,VALID,97.3891,VALID,0,VALID,19.6098,VALID,113,VALID,0.244141,
2012-10-21, 00:40:04,VALID,917.532,VALID,0.2,VALID,97.3815,VALID,0,VALID,19.6293,VALID,113,VALID,0.33125,
2012-10-21, 00:41:04,VALID,917.531,VALID,0,VALID,97.4044,VALID,0,VALID,19.6083,VALID,113,VALID,0.117188,
2012-10-21, 00:42:04,VALID,917.528,VALID,0,VALID,97.3739,VALID,0,VALID,19.5888,VALID,113,VALID,0.333203,
2012-10-21, 00:43:04,VALID,917.488,VALID,0,VALID,97.3434,VALID,0,VALID,19.6098,VALID,113,VALID,0.246484,
2012-10-21, 00:44:04,VALID,917.469,VALID,0,VALID,97.3815,VALID,0,VALID,19.5888,VALID,113,VALID,0.362891,
2012-10-21, 00:45:04,VALID,917.453,VALID,0.2,VALID,97.3739,VALID,0,VALID,19.5888,VALID,113,VALID,0.0449219,
2012-10-21, 00:46:04,VALID,917.454,VALID,0,VALID,97.3586,VALID,0,VALID,19.6098,VALID,113,VALID,0.158984,
2012-10-21, 00:47:04,VALID,917.437,VALID,0,VALID,97.3968,VALID,0,VALID,19.6293,VALID,113,VALID,0,
2012-10-21, 00:48:04,VALID,917.411,VALID,0.2,VALID,97.3891,VALID,0,VALID,19.5888,VALID,113,VALID,0,
2012-10-21, 00:49:04,VALID,917.393,VALID,0,VALID,97.3663,VALID,0,VALID,19.6083,VALID,113,VALID,0,
2012-10-21, 00:50:04,VALID,917.396,VALID,0,VALID,97.3663,VALID,0,VALID,19.6278,VALID,113,VALID,0,
2012-10-21, 00:51:04,VALID,917.367,VALID,0,VALID,97.3586,VALID,0,VALID,19.5888,VALID,113,VALID,0.00273437,
2012-10-21, 00:52:04,VALID,917.342,VALID,0.2,VALID,97.351,VALID,0,VALID,19.5693,VALID,113,VALID,0,
2012-10-21, 00:53:04,VALID,917.324,VALID,0,VALID,97.3891,VALID,0,VALID,19.5483,VALID,113,VALID,0,
2012-10-21, 00:54:04,VALID,917.315,VALID,0,VALID,97.3663,VALID,0,VALID,19.5498,VALID,113,VALID,0.1625,
2012-10-21, 00:55:04,VALID,917.273,VALID,0,VALID,97.3434,VALID,0,VALID,19.5903,VALID,113,VALID,0,
2012-10-21, 00:56:04,VALID,917.299,VALID,0,VALID,97.3739,VALID,0,VALID,19.5888,VALID,113,VALID,0.236719,
2012-10-21, 00:57:04,VALID,917.239,VALID,0.2,VALID,97.4044,VALID,0,VALID,19.5498,VALID,113,VALID,0.182422,
2012-10-21, 00:58:04,VALID,917.231,VALID,0,VALID,97.3815,VALID,0,VALID,19.5498,VALID,113,VALID,0.00195313,
2012-10-21, 00:59:04,VALID,917.202,VALID,0,VALID,97.3968,VALID,0,VALID,19.5498,VALID,113,VALID,0.326172,
2012-10-21, 01:00:04,VALID,917.158,VALID,0,VALID,97.3434,VALID,0,VALID,19.5303,VALID,113,VALID,0.0582031,
2012-10-21, 01:01:04,VALID,917.189,VALID,0,VALID,97.3815,VALID,0,VALID,19.5708,VALID,113,VALID,0.307422,
2012-10-21, 01:02:04,VALID,917.154,VALID,0,VALID,97.3586,VALID,0,VALID,19.5108,VALID,113,VALID,0.364062,
2012-10-21, 01:03:04,VALID,917.178,VALID,0,VALID,97.3663,VALID,0,VALID,19.5108,VALID,113,VALID,0.225781,
2012-10-21, 01:04:04,VALID,917.147,VALID,0,VALID,97.3434,VALID,0,VALID,19.4718,VALID,113,VALID,0,
2012-10-21, 01:05:04,VALID,917.132,VALID,0,VALID,97.3586,VALID,0,VALID,19.5108,VALID,113,VALID,0,
2012-10-21, 01:06:04,VALID,917.151,VALID,0,VALID,97.351,VALID,0,VALID,19.5108,VALID,113,VALID,0,
2012-10-21, 01:07:04,VALID,917.168,VALID,0,VALID,97.351,VALID,0,VALID,19.4718,VALID,113,VALID,0,
2012-10-21, 01:08:04,VALID,917.138,VALID,0,VALID,97.3358,VALID,0,VALID,19.4898,VALID,113,VALID,0.245312,
2012-10-21, 01:09:04,VALID,917.138,VALID,0,VALID,97.3586,VALID,0,VALID,19.4913,VALID,113,VALID,0.357812,
2012-10-21, 01:10:04,VALID,917.111,VALID,0,VALID,97.3663,VALID,0,VALID,19.5303,VALID,113,VALID,0.401563,
2012-10-21, 01:11:04,VALID,917.124,VALID,0,VALID,97.351,VALID,0,VALID,19.5498,VALID,113,VALID,0.522656,
2012-10-21, 01:12:04,VALID,917.091,VALID,0,VALID,97.3281,VALID,0,VALID,19.5693,VALID,113,VALID,0.488281,
2012-10-21, 01:13:04,VALID,917.064,VALID,0,VALID,97.351,VALID,0,VALID,19.5498,VALID,113,VALID,0.53125,
2012-10-21, 01:14:04,VALID,917.059,VALID,0,VALID,97.3434,VALID,0,VALID,19.5303,VALID,113,VALID,0.387891,
2012-10-21, 01:15:04,VALID,917.062,VALID,0,VALID,97.3281,VALID,0,VALID,19.5108,VALID,113,VALID,0.590234,
2012-10-21, 01:16:04,VALID,917.051,VALID,0,VALID,97.3434,VALID,0,VALID,19.4913,VALID,113,VALID,0.525391,
2012-10-21, 01:17:04,VALID,917.058,VALID,0,VALID,97.3358,VALID,0,VALID,19.4718,VALID,113,VALID,0.236328,
2012-10-21, 01:18:04,VALID,917.043,VALID,0,VALID,97.3358,VALID,0,VALID,19.4913,VALID,113,VALID,0,
2012-10-21, 01:19:04,VALID,917.067,VALID,0,VALID,97.351,VALID,0,VALID,19.5108,VALID,113,VALID,0.0867188,
2012-10-21, 01:20:04,VALID,917.043,VALID,0,VALID,97.3663,VALID,0,VALID,19.5303,VALID,113,VALID,0.0355469,
2012-10-21, 01:21:04,VALID,917.056,VALID,0,VALID,97.3434,VALID,0,VALID,19.5303,VALID,113,VALID,0.143359,
2012-10-21, 01:22:04,VALID,917.076,VALID,0,VALID,97.3434,VALID,0,VALID,19.5498,VALID,113,VALID,0.238672,
2012-10-21, 01:23:04,VALID,917.095,VALID,0,VALID,97.3281,VALID,0,VALID,19.5303,VALID,113,VALID,0,
2012-10-21, 01:24:04,VALID,917.072,VALID,0,VALID,97.3586,VALID,0,VALID,19.5303,VALID,113,VALID,0,
2012-10-21, 01:25:04,VALID,917.081,VALID,0,VALID,97.351,VALID,0,VALID,19.5093,VALID,113,VALID,0,
2012-10-21, 01:26:04,VALID,917.076,VALID,0,VALID,97.3281,VALID,0,VALID,19.5303,VALID,113,VALID,0,
2012-10-21, 01:27:04,VALID,917.039,VALID,0,VALID,97.3434,VALID,0,VALID,19.5303,VALID,113,VALID,0,
2012-10-21, 01:28:04,VALID,917,VALID,0,VALID,97.3434,VALID,0,VALID,19.5303,VALID,113,VALID,0,
2012-10-21, 01:29:04,VALID,916.977,VALID,0,VALID,97.3129,VALID,0,VALID,19.5108,VALID,113,VALID,0,
2012-10-21, 01:30:04,VALID,916.963,VALID,0,VALID,97.3129,VALID,0,VALID,19.5108,VALID,113,VALID,0,
2012-10-21, 01:31:04,VALID,916.948,VALID,0,VALID,97.3281,VALID,0,VALID,19.4913,VALID,113,VALID,0,
2012-10-21, 01:32:04,VALID,916.97,VALID,0,VALID,97.3434,VALID,0,VALID,19.4898,VALID,113,VALID,0.0207031,
2012-10-21, 01:33:04,VALID,916.971,VALID,0,VALID,97.3129,VALID,0,VALID,19.5108,VALID,113,VALID,0.569141,
2012-10-21, 01:34:04,VALID,916.954,VALID,0,VALID,97.3434,VALID,0,VALID,19.4913,VALID,113,VALID,0.223047,
2012-10-21, 01:35:04,VALID,916.972,VALID,0,VALID,97.3434,VALID,0,VALID,19.4913,VALID,113,VALID,0,
2012-10-21, 01:36:04,VALID,916.945,VALID,0,VALID,97.3129,VALID,0,VALID,19.5108,VALID,113,VALID,0,
2012-10-21, 01:37:04,VALID,916.929,VALID,0,VALID,97.351,VALID,0,VALID,19.5108,VALID,113,VALID,0,
2012-10-21, 01:38:04,VALID,916.954,VALID,0,VALID,97.3358,VALID,0,VALID,19.5303,VALID,113,VALID,0,
2012-10-21, 01:39:04,VALID,916.879,VALID,0,VALID,97.3434,VALID,0,VALID,19.5498,VALID,113,VALID,0,
2012-10-21, 01:40:04,VALID,916.882,VALID,0,VALID,97.3358,VALID,0,VALID,19.5693,VALID,113,VALID,0,
2012-10-21, 01:41:04,VALID,916.863,VALID,0,VALID,97.3434,VALID,0,VALID,19.5693,VALID,113,VALID,0,
2012-10-21, 01:42:04,VALID,916.863,VALID,0,VALID,97.351,VALID,0,VALID,19.5888,VALID,113,VALID,0.121094,
2012-10-21, 01:43:04,VALID,916.854,VALID,0,VALID,97.3663,VALID,0,VALID,19.6278,VALID,113,VALID,0.185547,
2012-10-21, 01:44:04,VALID,916.845,VALID,0,VALID,97.3434,VALID,0,VALID,19.6473,VALID,113,VALID,0.407813,
2012-10-21, 01:45:04,VALID,916.839,VALID,0,VALID,97.3663,VALID,0,VALID,19.6263,VALID,113,VALID,0.566016,
2012-10-21, 01:46:04,VALID,916.863,VALID,0,VALID,97.3586,VALID,0,VALID,19.6863,VALID,113,VALID,0.496484,
2012-10-21, 01:47:04,VALID,916.855,VALID,0,VALID,97.3434,VALID,0,VALID,19.6668,VALID,113,VALID,0.382031,
2012-10-21, 01:48:04,VALID,916.861,VALID,0,VALID,97.3358,VALID,0,VALID,19.6653,VALID,113,VALID,0.274219,
2012-10-21, 01:49:04,VALID,916.852,VALID,0,VALID,97.351,VALID,0,VALID,19.6668,VALID,113,VALID,0,
2012-10-21, 01:50:04,VALID,916.845,VALID,0,VALID,97.3663,VALID,0,VALID,19.6278,VALID,312,VALID,0.715625,
2012-10-21, 01:51:04,VALID,916.841,VALID,0,VALID,97.3281,VALID,0,VALID,19.5678,VALID,312,VALID,0.351172,
2012-10-21, 01:52:04,VALID,916.856,VALID,0,VALID,97.3281,VALID,0,VALID,19.5888,VALID,312,VALID,0,
2012-10-21, 01:53:04,VALID,916.839,VALID,0,VALID,97.3358,VALID,0,VALID,19.5888,VALID,312,VALID,0.0046875,
2012-10-21, 01:54:04,VALID,916.821,VALID,0,VALID,97.3358,VALID,0,VALID,19.5678,VALID,312,VALID,0.0882813,
2012-10-21, 01:55:04,VALID,916.853,VALID,0,VALID,97.3586,VALID,0,VALID,19.5693,VALID,312,VALID,0,
2012-10-21, 01:56:04,VALID,916.856,VALID,0,VALID,97.351,VALID,0,VALID,19.5693,VALID,312,VALID,0,
2012-10-21, 01:57:04,VALID,916.852,VALID,0,VALID,97.3358,VALID,0,VALID,19.5888,VALID,312,VALID,0,
2012-10-21, 01:58:04,VALID,916.855,VALID,0,VALID,97.351,VALID,0,VALID,19.6083,VALID,312,VALID,0,
2012-10-21, 01:59:04,VALID,916.824,VALID,0,VALID,97.3434,VALID,0,VALID,19.5873,VALID,312,VALID,0.0894531,
2012-10-21, 02:00:04,VALID,916.827,VALID,0,VALID,97.3739,VALID,0,VALID,19.6083,VALID,312,VALID,0.0234375,
2012-10-21, 02:01:04,VALID,916.808,VALID,0,VALID,97.3586,VALID,0,VALID,19.6473,VALID,312,VALID,0,
2012-10-21, 02:02:04,VALID,916.77,VALID,0,VALID,97.3586,VALID,0,VALID,19.6458,VALID,312,VALID,0,
2012-10-21, 02:03:04,VALID,916.753,VALID,0,VALID,97.3739,VALID,0,VALID,19.6473,VALID,312,VALID,0,
2012-10-21, 02:04:04,VALID,916.808,VALID,0,VALID,97.3586,VALID,0,VALID,19.6278,VALID,312,VALID,0,
2012-10-21, 02:05:04,VALID,916.785,VALID,0,VALID,97.3586,VALID,0,VALID,19.6473,VALID,312,VALID,0,
2012-10-21, 02:06:04,VALID,916.771,VALID,0,VALID,97.351,VALID,0,VALID,19.6263,VALID,312,VALID,0,
2012-10-21, 02:07:04,VALID,916.763,VALID,0,VALID,97.3739,VALID,0,VALID,19.6263,VALID,312,VALID,0,
2012-10-21, 02:08:04,VALID,916.748,VALID,0,VALID,97.3586,VALID,0,VALID,19.6668,VALID,312,VALID,0,
2012-10-21, 02:09:04,VALID,916.777,VALID,0,VALID,97.3586,VALID,0,VALID,19.6668,VALID,312,VALID,0,
2012-10-21, 02:10:04,VALID,916.718,VALID,0,VALID,97.351,VALID,0,VALID,19.6068,VALID,312,VALID,0,
2012-10-21, 02:11:04,VALID,916.695,VALID,0,VALID,97.3586,VALID,0,VALID,19.6068,VALID,312,VALID,0,
2012-10-21, 02:12:04,VALID,916.681,VALID,0,VALID,97.3739,VALID,0.107441,VALID,19.6668,VALID,312,VALID,0,
2012-10-21, 02:13:04,VALID,916.689,VALID,0,VALID,97.3663,VALID,0.107441,VALID,19.6653,VALID,312,VALID,0,
2012-10-21, 02:14:04,VALID,916.72,VALID,0,VALID,97.3739,VALID,0,VALID,19.6863,VALID,312,VALID,0,
2012-10-21, 02:15:04,VALID,916.71,VALID,0,VALID,97.3739,VALID,0,VALID,19.6863,VALID,312,VALID,0,
2012-10-21, 02:16:04,VALID,916.702,VALID,0,VALID,97.3586,VALID,0,VALID,19.6263,VALID,312,VALID,0,
2012-10-21, 02:17:04,VALID,916.722,VALID,0,VALID,97.3586,VALID,0,VALID,19.6473,VALID,351,VALID,0.767578,
2012-10-21, 02:18:04,VALID,916.696,VALID,0,VALID,97.3586,VALID,0.107441,VALID,19.6458,VALID,354,VALID,0.503906,
2012-10-21, 02:19:04,VALID,916.676,VALID,0,VALID,97.3739,VALID,0,VALID,19.6263,VALID,354,VALID,0.622656,
2012-10-21, 02:20:04,VALID,916.705,VALID,0,VALID,97.3663,VALID,0,VALID,19.6083,VALID,354,VALID,0.294531,
2012-10-21, 02:21:04,VALID,916.667,VALID,0,VALID,97.3739,VALID,0,VALID,19.6083,VALID,354,VALID,0.0742188,
2012-10-21, 02:22:04,VALID,916.662,VALID,0,VALID,97.3663,VALID,0,VALID,19.6263,VALID,354,VALID,0.065625,
2012-10-21, 02:23:04,VALID,916.64,VALID,0,VALID,97.3739,VALID,0,VALID,19.6458,VALID,354,VALID,0,
2012-10-21, 02:24:04,VALID,916.654,VALID,0,VALID,97.351,VALID,0,VALID,19.6863,VALID,354,VALID,0,
2012-10-21, 02:25:04,VALID,916.61,VALID,0,VALID,97.3739,VALID,0,VALID,19.6653,VALID,354,VALID,0,
2012-10-21, 02:26:04,VALID,916.641,VALID,0,VALID,97.3891,VALID,0.107441,VALID,19.6458,VALID,354,VALID,0,
2012-10-21, 02:27:04,VALID,916.624,VALID,0,VALID,97.3891,VALID,0,VALID,19.6878,VALID,354,VALID,0.00585938,
2012-10-21, 02:28:04,VALID,916.586,VALID,0,VALID,97.3815,VALID,0,VALID,19.6653,VALID,354,VALID,0,
2012-10-21, 02:29:04,VALID,916.577,VALID,0,VALID,97.3891,VALID,0,VALID,19.6863,VALID,354,VALID,0,
2012-10-21, 02:30:04,VALID,916.564,VALID,0,VALID,97.3663,VALID,0,VALID,19.6863,VALID,354,VALID,0.158984,
2012-10-21, 02:31:04,VALID,916.568,VALID,0,VALID,97.3739,VALID,0,VALID,19.6473,VALID,354,VALID,0.460547,
2012-10-21, 02:32:04,VALID,916.549,VALID,0,VALID,97.3891,VALID,0,VALID,19.5873,VALID,299,VALID,0.654688,
2012-10-21, 02:33:04,VALID,916.555,VALID,0,VALID,97.3815,VALID,0,VALID,19.6098,VALID,298,VALID,0.357422,
2012-10-21, 02:34:04,VALID,916.529,VALID,0,VALID,97.3815,VALID,0,VALID,19.5888,VALID,299,VALID,0.371094,
2012-10-21, 02:35:04,VALID,916.557,VALID,0,VALID,97.3891,VALID,0,VALID,19.5888,VALID,299,VALID,0,
2012-10-21, 02:36:04,VALID,916.536,VALID,0,VALID,97.3968,VALID,0,VALID,19.5678,VALID,298,VALID,0,
2012-10-21, 02:37:04,VALID,916.546,VALID,0,VALID,97.3968,VALID,0,VALID,19.6083,VALID,304,VALID,0.633594,
2012-10-21, 02:38:04,VALID,916.514,VALID,0,VALID,97.3891,VALID,0.107441,VALID,19.6083,VALID,7,VALID,0.422656,
2012-10-21, 02:39:04,VALID,916.519,VALID,0,VALID,97.4044,VALID,0,VALID,19.5693,VALID,7,VALID,0.360156,
2012-10-21, 02:40:04,VALID,916.527,VALID,0,VALID,97.3968,VALID,0,VALID,19.5678,VALID,7,VALID,0,
2012-10-21, 02:41:04,VALID,916.555,VALID,0,VALID,97.3968,VALID,0,VALID,19.5678,VALID,7,VALID,0,
2012-10-21, 02:42:04,VALID,916.552,VALID,0,VALID,97.3815,VALID,0,VALID,19.5873,VALID,7,VALID,0,
2012-10-21, 02:43:04,VALID,916.555,VALID,0,VALID,97.3891,VALID,0,VALID,19.5678,VALID,7,VALID,0.0859375,
2012-10-21, 02:44:04,VALID,916.546,VALID,0,VALID,97.4044,VALID,0,VALID,19.5483,VALID,5,VALID,0.929688,
2012-10-21, 02:45:04,VALID,916.55,VALID,0,VALID,97.3968,VALID,0,VALID,19.5483,VALID,349,VALID,0.4875,
2012-10-21, 02:46:04,VALID,916.537,VALID,0,VALID,97.412,VALID,0,VALID,19.5693,VALID,349,VALID,0.208594,
2012-10-21, 02:47:04,VALID,916.531,VALID,0,VALID,97.4044,VALID,0,VALID,19.6083,VALID,349,VALID,0.0785156,
2012-10-21, 02:48:04,VALID,916.522,VALID,0,VALID,97.412,VALID,0,VALID,19.5693,VALID,349,VALID,0.0644531,
2012-10-21, 02:49:04,VALID,916.521,VALID,0,VALID,97.4044,VALID,0.107441,VALID,19.5483,VALID,349,VALID,0.0863281,
2012-10-21, 02:50:04,VALID,916.518,VALID,0,VALID,97.4196,VALID,0,VALID,19.5288,VALID,349,VALID,0,
2012-10-21, 02:51:04,VALID,916.519,VALID,0,VALID,97.4044,VALID,0,VALID,19.5288,VALID,349,VALID,0.235547,
2012-10-21, 02:52:04,VALID,916.502,VALID,0,VALID,97.412,VALID,0.107441,VALID,19.5288,VALID,9,VALID,0.417188,
2012-10-21, 02:53:04,VALID,916.517,VALID,0,VALID,97.4349,VALID,0.107441,VALID,19.5498,VALID,9,VALID,0.508203,
2012-10-21, 02:54:04,VALID,916.495,VALID,0,VALID,97.4196,VALID,0,VALID,19.5693,VALID,9,VALID,0.195703,
2012-10-21, 02:55:04,VALID,916.497,VALID,0,VALID,97.4196,VALID,0,VALID,19.5483,VALID,9,VALID,0.448438,
2012-10-21, 02:56:04,VALID,916.499,VALID,0,VALID,97.412,VALID,0,VALID,19.5483,VALID,9,VALID,0.0761719,
2012-10-21, 02:57:04,VALID,916.512,VALID,0,VALID,97.4349,VALID,0.107441,VALID,19.5288,VALID,9,VALID,0,
2012-10-21, 02:58:04,VALID,916.547,VALID,0,VALID,97.4196,VALID,0,VALID,19.5288,VALID,9,VALID,0,
2012-10-21, 02:59:04,VALID,916.502,VALID,0,VALID,97.4349,VALID,0,VALID,19.5303,VALID,9,VALID,0,
2012-10-21, 03:00:04,VALID,916.503,VALID,0,VALID,97.4196,VALID,0,VALID,19.5108,VALID,9,VALID,0,
2012-10-21, 03:01:04,VALID,916.524,VALID,0,VALID,97.4273,VALID,0,VALID,19.5093,VALID,9,VALID,0,
2012-10-21, 03:02:04,VALID,916.551,VALID,0,VALID,97.4196,VALID,0.107441,VALID,19.5093,VALID,9,VALID,0,
2012-10-21, 03:03:04,VALID,916.572,VALID,0,VALID,97.4425,VALID,0,VALID,19.5108,VALID,9,VALID,0.271484,
2012-10-21, 03:04:04,VALID,916.541,VALID,0,VALID,97.4273,VALID,0,VALID,19.4523,VALID,9,VALID,0.06875,
2012-10-21, 03:05:04,VALID,916.535,VALID,0,VALID,97.4196,VALID,0,VALID,19.4508,VALID,9,VALID,0.0730469,
2012-10-21, 03:06:04,VALID,916.528,VALID,0,VALID,97.4273,VALID,0,VALID,19.4508,VALID,9,VALID,0.233984,
2012-10-21, 03:07:04,VALID,916.521,VALID,0,VALID,97.4196,VALID,0,VALID,19.4703,VALID,9,VALID,0,
2012-10-21, 03:08:04,VALID,916.531,VALID,0,VALID,97.4349,VALID,0,VALID,19.4523,VALID,257,VALID,0.487891,
2012-10-21, 03:09:04,VALID,916.497,VALID,0,VALID,97.4425,VALID,0,VALID,19.4118,VALID,257,VALID,0.400781,
2012-10-21, 03:10:04,VALID,916.523,VALID,0,VALID,97.4425,VALID,0.107441,VALID,19.4118,VALID,257,VALID,0.289844,
2012-10-21, 03:11:04,VALID,916.481,VALID,0,VALID,97.4425,VALID,0,VALID,19.4523,VALID,257,VALID,0,
2012-10-21, 03:12:04,VALID,916.473,VALID,0,VALID,97.4349,VALID,0,VALID,19.4718,VALID,257,VALID,0,
2012-10-21, 03:13:04,VALID,916.48,VALID,0,VALID,97.4425,VALID,0,VALID,19.4703,VALID,257,VALID,0,
2012-10-21, 03:14:04,VALID,916.486,VALID,0,VALID,97.4425,VALID,0.107441,VALID,19.4523,VALID,257,VALID,0,
2012-10-21, 03:15:04,VALID,916.501,VALID,0,VALID,97.4654,VALID,0,VALID,19.4508,VALID,5,VALID,0.262109,
2012-10-21, 03:16:04,VALID,916.481,VALID,0,VALID,97.4501,VALID,0,VALID,19.4508,VALID,360,VALID,0.713281,
2012-10-21, 03:17:04,VALID,916.483,VALID,0,VALID,97.4577,VALID,0,VALID,19.4523,VALID,356,VALID,0.389844,
2012-10-21, 03:18:04,VALID,916.503,VALID,0,VALID,97.4425,VALID,0,VALID,19.3923,VALID,357,VALID,0.547656,
2012-10-21, 03:19:04,VALID,916.498,VALID,0,VALID,97.4349,VALID,0,VALID,19.3937,VALID,357,VALID,0.207813,
2012-10-21, 03:20:04,VALID,916.476,VALID,0,VALID,97.4577,VALID,0,VALID,19.3728,VALID,357,VALID,0,
2012-10-21, 03:21:04,VALID,916.493,VALID,0,VALID,97.4577,VALID,0,VALID,19.4132,VALID,357,VALID,0,
2012-10-21, 03:22:04,VALID,916.497,VALID,0,VALID,97.4501,VALID,0,VALID,19.4118,VALID,357,VALID,0.260547,
2012-10-21, 03:23:04,VALID,916.513,VALID,0,VALID,97.473,VALID,0,VALID,19.4327,VALID,357,VALID,0.343359,
2012-10-21, 03:24:04,VALID,916.488,VALID,0,VALID,97.4577,VALID,0,VALID,19.3937,VALID,357,VALID,0.315234,
2012-10-21, 03:25:04,VALID,916.514,VALID,0,VALID,97.4577,VALID,0,VALID,19.3547,VALID,357,VALID,0.198828,
2012-10-21, 03:26:04,VALID,916.503,VALID,0,VALID,97.4577,VALID,0,VALID,19.3352,VALID,357,VALID,0.0570313,
2012-10-21, 03:27:04,VALID,916.506,VALID,0,VALID,97.4425,VALID,0,VALID,19.3533,VALID,357,VALID,0.287109,
2012-10-21, 03:28:04,VALID,916.51,VALID,0,VALID,97.4654,VALID,0,VALID,19.3533,VALID,357,VALID,0.421484,
2012-10-21, 03:29:04,VALID,916.511,VALID,0,VALID,97.473,VALID,0,VALID,19.3352,VALID,357,VALID,0.151172,
2012-10-21, 03:30:04,VALID,916.527,VALID,0,VALID,97.4654,VALID,0,VALID,19.3352,VALID,357,VALID,0.00234375,
2012-10-21, 03:31:04,VALID,916.521,VALID,0,VALID,97.473,VALID,0,VALID,19.2933,VALID,357,VALID,0,
2012-10-21, 03:32:04,VALID,916.531,VALID,0,VALID,97.4654,VALID,0,VALID,19.3352,VALID,357,VALID,0,
2012-10-21, 03:33:04,VALID,916.526,VALID,0,VALID,97.4654,VALID,0,VALID,19.3547,VALID,357,VALID,0,
2012-10-21, 03:34:04,VALID,916.532,VALID,0,VALID,97.4577,VALID,0,VALID,19.3742,VALID,357,VALID,0,
2012-10-21, 03:35:04,VALID,916.509,VALID,0,VALID,97.473,VALID,0.107441,VALID,19.3937,VALID,357,VALID,0.204688,
2012-10-21, 03:36:04,VALID,916.516,VALID,0,VALID,97.473,VALID,0,VALID,19.3728,VALID,357,VALID,0.0265625,
2012-10-21, 03:37:04,VALID,916.53,VALID,0,VALID,97.4654,VALID,0,VALID,19.3547,VALID,357,VALID,0.0714844,
2012-10-21, 03:38:04,VALID,916.518,VALID,0,VALID,97.473,VALID,0,VALID,19.3338,VALID,357,VALID,0,
2012-10-21, 03:39:04,VALID,916.545,VALID,0,VALID,97.5035,VALID,0,VALID,19.3547,VALID,357,VALID,0.0664063,
2012-10-21, 03:40:04,VALID,916.555,VALID,0,VALID,97.4806,VALID,0,VALID,19.3547,VALID,357,VALID,0,
2012-10-21, 03:41:04,VALID,916.522,VALID,0,VALID,97.4882,VALID,0,VALID,19.3728,VALID,357,VALID,0,
2012-10-21, 03:42:04,VALID,916.549,VALID,0,VALID,97.473,VALID,0,VALID,19.3533,VALID,357,VALID,0.228125,
2012-10-21, 03:43:04,VALID,916.51,VALID,0,VALID,97.4959,VALID,0,VALID,19.3338,VALID,357,VALID,0.00546875,
2012-10-21, 03:44:04,VALID,916.513,VALID,0,VALID,97.4959,VALID,0,VALID,19.3742,VALID,357,VALID,0.348828,
2012-10-21, 03:45:04,VALID,916.527,VALID,0,VALID,97.4959,VALID,0,VALID,19.3352,VALID,357,VALID,0.282422,
2012-10-21, 03:46:04,VALID,916.494,VALID,0,VALID,97.4882,VALID,0,VALID,19.3352,VALID,357,VALID,0.146875,
2012-10-21, 03:47:04,VALID,916.514,VALID,0,VALID,97.4882,VALID,0,VALID,19.3757,VALID,357,VALID,0,
2012-10-21, 03:48:04,VALID,916.47,VALID,0,VALID,97.4882,VALID,0,VALID,19.3742,VALID,357,VALID,0,
2012-10-21, 03:49:04,VALID,916.534,VALID,0,VALID,97.5111,VALID,0,VALID,19.3937,VALID,357,VALID,0,